Location: Lake Arresoe
(56.0000°N, 12.5000°E)
Time: 09:34:07
(UTC+02:00)

CZ-3 Stage 3 - Visible Passes

Search period start: 17 October 2017 00:00
Search period end: 27 October 2017 00:00
Orbit: 421 x 34777 km, 31.0° (Epoch: 16 October)

Date Brightness Start Highest point End Pass type
(mag) Time Alt. Az. Time Alt. Az. Time Alt. Az.
19 Oct 5.5 05:43:01 10° SSE 05:45:55 12° SE 05:50:21 10° ESE visible
22 Oct 5.5 05:33:53 10° SSE 05:36:32 11° SE 05:40:26 10° SE visible
25 Oct 5.5 05:24:48 10° SSE 05:27:09 11° SE 05:30:27 10° SE visible
